Meteo Giornale » Osservazioni meteo Stati Uniti (USA) » Marion Muni

ore: 00:55 - Osservazioni Meteo Marion Muni
Lat. 40° 29' N Lon. 85° 41' W Alt. 262 metri s.l.m.

sereno

25 °C

Sereno

Temp. 24 Ore

20 °C

31 °C

Sud/Sud-Ovest

11.1 Km/h

Dew point 21 °C

Umidità 78 %

Visibilità  11 Km

Il sole sorge alle ore 07:10

Il sole tramonta alle ore 20:15

Data e Ora Cielo e Fenomeni T °C DP °C Um. % Pres. hPa Vis. km Vento km/h
Oggi h: 00:55 sereno Sereno 25 21 78 1016 11 S/SO 11.1
Oggi h: 00:35 sereno Sereno 25 21 78 1016 11 S/SO 11.1
Oggi h: 00:15 sereno Sereno 25 21 78 1016 10 S 13
Ieri h: 23:55 sereno Sereno 25 21 78 1016 10 S/SO 13
Ieri h: 23:35 sereno Sereno 25 21 78 1016 10 S 13
Ieri h: 23:15 sereno Sereno 25 21 78 1016 11 S 9.3
Ieri h: 22:55 sereno Sereno 24 21 83 1017 10 S 9.3
Ieri h: 22:35 sereno Sereno 24 21 83 1017 10 S 9.3
Ieri h: 22:15 sereno Sereno 24 21 83 1017 10 S 9.3
Ieri h: 21:55 sereno Sereno 24 21 83 1017 10 N 0
Ieri h: 21:35 sereno Sereno 24 21 83 1017 11 S 7.4
Ieri h: 21:15 nuvoloso Nuvoloso 25 21 78 1017 10 N 0
Ieri h: 20:55 molto_nuvoloso Molto Nuvoloso 25 22 83 1017 11 N 0
Ieri h: 20:35 molto_nuvoloso Molto Nuvoloso 25 22 83 1016 11 N 0
Ieri h: 20:15 molto_nuvoloso Molto Nuvoloso 27 22 74 1016 11 N 5.5
Ieri h: 19:55 sereno Sereno 28 21 65 1016 11 N 5.5
Ieri h: 19:35 sereno Sereno 28 21 65 1016 11 N 5.5
Ieri h: 19:15 sereno Sereno 29 20 58 1016 11 SO 7.4
Ieri h: 18:55 sereno Sereno 30 20 55 1016 11 O/SO 7.4
Ieri h: 18:35 sereno Sereno 30 20 55 1016 11 O/SO 9.3
Ieri h: 18:10 sereno Sereno 30 20 55 1016 11 O/SO 11.1
Ieri h: 17:55 sereno Sereno 31 20 52 1016 11 O/SO 9.3
Ieri h: 17:35 sereno Sereno 30 20 55 1016 11 SO 13
Ieri h: 17:15 foschia Foschia 30 20 55 1016 8 SO 9.3
Ieri h: 16:55 sereno Sereno 31 20 52 1016 11 O/SO 16.7
Ieri h: 16:35 sereno Sereno 31 20 52 1016 11 SO 20.3
Ieri h: 16:15 sereno Sereno 31 20 52 1017 11 SO 16.7
Ieri h: 15:55 sereno Sereno 31 20 52 1017 11 S/SO 18.5
Ieri h: 15:35 sereno Sereno 31 20 52 1017 11 S/SO 18.5
Ieri h: 15:15 sereno Sereno 31 21 55 1018 10 SO 11.1
Ieri h: 14:55 sereno Sereno 30 21 58 1018 10 S/SO 9.3
Ieri h: 14:35 sereno Sereno 29 21 62 1018 10 N 5.5
Ieri h: 14:15 sereno Sereno 29 21 62 1019 11 N 5.5
Ieri h: 13:55 sereno Sereno 29 21 62 1019 11 O/SO 11.1
Ieri h: 13:35 sereno Sereno 29 20 58 1019 10 O/SO 11.1
Ieri h: 13:15 sereno Sereno 29 21 62 1019 11 SO 14.8
Ieri h: 12:55 sereno Sereno 28 21 65 1019 11 O/SO 11.1
Ieri h: 12:35 sereno Sereno 27 21 69 1019 10 O/SO 11.1
Ieri h: 12:15 sereno Sereno 27 21 69 1019 11 O/SO 7.4
Ieri h: 11:55 sereno Sereno 27 22 74 1019 10 O/SO 9.3
Ieri h: 11:35 sereno Sereno 26 21 73 1019 11 SO 11.1
Ieri h: 11:15 sereno Sereno 26 21 73 1019 11 N 5.5
Ieri h: 10:55 sereno Sereno 25 21 78 1019 10 SO 7.4
Ieri h: 10:35 sereno Sereno 25 20 73 1019 11 SO 7.4
Ieri h: 10:15 sereno Sereno 24 20 78 1019 10 S/SO 9.3
Ieri h: 09:55 sereno Sereno 24 20 78 1019 10 S/SO 9.3
Ieri h: 09:35 nuvoloso Nuvoloso 23 19 78 1019 11 S 7.4
Ieri h: 09:15 nuvoloso Nuvoloso 23 19 78 1019 11 S/SO 7.4
Ieri h: 08:55 sereno Sereno 23 19 78 1018 11 S/SO 7.4
Ieri h: 08:35 sereno Sereno 22 19 83 1018 10 N 5.5
Ieri h: 08:15 sereno Sereno 21 19 88 1018 11 S 9.3
Ieri h: 07:55 sereno Sereno 20 18 88 1018 10 N 5.5
Ieri h: 07:35 sereno Sereno 20 18 88 1018 11 S 7.4
Ieri h: 07:15 sereno Sereno 20 18 88 1018 10 N 5.5
Ieri h: 06:55 sereno Sereno 20 18 88 1018 10 N 5.5
Ieri h: 06:30 sereno Sereno 21 18 82 1018 10 S 7.4
Ieri h: 06:15 sereno Sereno 21 18 82 1018 10 N 5.5
Ieri h: 05:55 sereno Sereno 22 19 83 1018 10 S 7.4
Ieri h: 05:35 sereno Sereno 22 19 83 1018 10 S 7.4
Ieri h: 05:15 sereno Sereno 22 19 83 1018 10 S 11.1
Ieri h: 04:55 sereno Sereno 21 19 88 1018 10 S 11.1
Ieri h: 04:35 sereno Sereno 21 19 88 1017 10 N 5.5
Ieri h: 04:15 sereno Sereno 21 19 88 1018 10 N 5.5
Ieri h: 03:55 sereno Sereno 22 19 83 1018 10 N 0
Ieri h: 03:35 sereno Sereno 22 19 83 1018 10 N 0
Ieri h: 03:15 sereno Sereno 22 19 83 1017 10 S/SE 7.4
Ieri h: 02:55 sereno Sereno 21 19 88 1017 10 S 7.4
Ieri h: 02:35 sereno Sereno 21 19 88 1018 11 N 0
Ieri h: 02:15 sereno Sereno 21 19 88 1018 10 N 0
Ieri h: 01:55 sereno Sereno 22 19 83 1018 10 N 0
Ieri h: 01:35 sereno Sereno 22 19 83 1018 10 N 0